QPF
0.00 0.00 0.00 0.00 0.00 0.00 0.00 0.00 0.00 0.00 0.00 0.00 0.00 0.00 0.00 0.00 0.00 0.00 0.01 0.01 0.02 0.01 0.02 0.02 0.01 0.01 0.01 0.00 0.00 0.00 0.01 0.01 0.02 0.03 0.03 0.03 0.03 0.02 0.02 0.02 0.02 0.01 0.01
0.00 0.00 0.00 0.00 0.00 0.00 0.00 0.00 0.00 0.00 0.00 0.00 0.00 0.00 0.00 0.00 0.00 0.00 0.01 0.01 0.02 0.01 0.01 0.01 0.00 0.00 0.01 0.01 0.00 0.00 0.00 0.01 0.02 0.03 0.03 0.03 0.04 0.03 0.02 0.02 0.01 0.01 0.01
0.00 0.00 0.00 0.00 0.00 0.00 0.00 0.00 0.00 0.00 0.00 0.00 0.00 0.00 0.00 0.00 0.00 0.01 0.01 0.01 0.01 0.01 0.01 0.01 0.01 0.01 0.01 0.01 0.01 0.00 0.00 0.01 0.02 0.03 0.03 0.03 0.03 0.03 0.02 0.02 0.02 0.02 0.01
0.00 0.00 0.00 0.00 0.00 0.00 0.00 0.00 0.00 0.00 0.00 0.00 0.00 0.00 0.00 0.00 0.00 0.01 0.01 0.01 0.01 0.01 0.01 0.02 0.01 0.01 0.01 0.01 0.01 0.01 0.01 0.01 0.02 0.03 0.03 0.03 0.04 0.04 0.03 0.02 0.02 0.02 0.02
0.00 0.00 0.00 0.00 0.00 0.00 0.00 0.00 0.00 0.00 0.00 0.00 0.00 0.00 0.00 0.00 0.00 0.01 0.01 0.01 0.02 0.02 0.01 0.01 0.01 0.01 0.01 0.01 0.01 0.01 0.01 0.01 0.02 0.02 0.03 0.03 0.03 0.03 0.03 0.03 0.02 0.02 0.02
0.00 0.00 0.00 0.00 0.00 0.00 0.00 0.00 0.00 0.00 0.00 0.00 0.00 0.00 0.00 0.00 0.01 0.01 0.01 0.01 0.02 0.02 0.01 0.01 0.01 0.01 0.01 0.00 0.00 0.00 0.01 0.01 0.02 0.02 0.03 0.03 0.03 0.03 0.03 0.03 0.02 0.02 0.02
0.00 0.00 0.00 0.00 0.00 0.00 0.00 0.00 0.00 0.00 0.00 0.00 0.00 0.00 0.00 0.01 0.01 0.01 0.02 0.03 0.02 0.02 0.01 0.01 0.01 0.01 0.01 0.01 0.00 0.00 0.00 0.00 0.01 0.01 0.02 0.03 0.03 0.03 0.03 0.03 0.02 0.02 0.02
0.00 0.00 0.00 0.00 0.00 0.00 0.00 0.00 0.00 0.00 0.00 0.00 0.00 0.00 0.00 0.01 0.01 0.02 0.02 0.02 0.03 0.02 0.01 0.01 0.01 0.01 0.02 0.02 0.01 0.01 0.01 0.00 0.00 0.01 0.02 0.02 0.03 0.03 0.02 0.02 0.02 0.02 0.02
0.00 0.00 0.00 0.00 0.00 0.00 0.00 0.00 0.00 0.00 0.00 0.00 0.00 0.00 0.00 0.01 0.01 0.02 0.02 0.01 0.01 0.01 0.01 0.01 0.01 0.01 0.02 0.02 0.02 0.01 0.01 0.01 0.01 0.01 0.02 0.03 0.02 0.02 0.02 0.02 0.02 0.02 0.02
0.00 0.00 0.00 0.00 0.00 0.00 0.00 0.00 0.00 0.00 0.00 0.00 0.00 0.00 0.00 0.00 0.01 0.01 0.02 0.01 0.01 0.01 0.01 0.01 0.01 0.01 0.01 0.02 0.02 0.02 0.01 0.01 0.01 0.01 0.01 0.02 0.03 0.03 0.03 0.02 0.02 0.03 0.03
0.00 0.00 0.00 0.00 0.00 0.00 0.00 0.00 0.00 0.00 0.00 0.00 0.00 0.00 0.00 0.00 0.01 0.01 0.02 0.02 0.02 0.02 0.02 0.01 0.01 0.01 0.01 0.01 0.02 0.02 0.02 0.02 0.02 0.02 0.02 0.02 0.03 0.03 0.04 0.03 0.03 0.03 0.04
0.00 0.00 0.00 0.00 0.00 0.00 0.00 0.00 0.00 0.00 0.00 0.00 0.00 0.00 0.00 0.00 0.01 0.00 0.01 0.02 0.03 0.03 0.02 0.02 0.01 0.01 0.01 0.01 0.01 0.02 0.02 0.02 0.02 0.02 0.03 0.04 0.04 0.04 0.04 0.04 0.05 0.05 0.05
0.00 0.00 0.00 0.00 0.00 0.00 0.00 0.00 0.00 0.00 0.00 0.00 0.00 0.00 0.00 0.01 0.01 0.01 0.01 0.01 0.02 0.03 0.02 0.02 0.02 0.01 0.01 0.01 0.01 0.01 0.01 0.01 0.01 0.02 0.02 0.03 0.05 0.05 0.05 0.04 0.04 0.05 0.05
0.00 0.00 0.00 0.00 0.00 0.00 0.00 0.00 0.00 0.00 0.00 0.00 0.00 0.00 0.01 0.01 0.01 0.01 0.01 0.01 0.01 0.02 0.03 0.03 0.02 0.02 0.02 0.01 0.01 0.01 0.01 0.01 0.01 0.01 0.01 0.02 0.03 0.04 0.05 0.06 0.05 0.04 0.05
0.00 0.00 0.00 0.00 0.00 0.00 0.00 0.00 0.00 0.00 0.00 0.00 0.00 0.00 0.01 0.01 0.01 0.01 0.01 0.01 0.01 0.01 0.01 0.02 0.02 0.02 0.02 0.02 0.02 0.02 0.02 0.01 0.01 0.01 0.01 0.02 0.03 0.03 0.04 0.04 0.05 0.06 0.06
0.00 0.00 0.00 0.00 0.00 0.00 0.00 0.00 0.00 0.00 0.00 0.00 0.00 0.01 0.01 0.01 0.01 0.01 0.01 0.00 0.01 0.01 0.01 0.01 0.01 0.01 0.01 0.01 0.01 0.01 0.01 0.01 0.01 0.01 0.01 0.02 0.03 0.03 0.04 0.03 0.04 0.04 0.04
0.00 0.00 0.00 0.00 0.00 0.00 0.00 0.00 0.01 0.01 0.00 0.01 0.01 0.02 0.02 0.01 0.01 0.01 0.01 0.01 0.01 0.00 0.00 0.00 0.01 0.00 0.00 0.01 0.01 0.01 0.01 0.01 0.01 0.01 0.01 0.02 0.02 0.03 0.04 0.04 0.04 0.03 0.03
0.01 0.00 0.00 0.00 0.00 0.00 0.00 0.01 0.02 0.02 0.03 0.03 0.03 0.02 0.02 0.01 0.01 0.01 0.01 0.01 0.00 0.00 0.00 0.00 0.00 0.00 0.00 0.01 0.01 0.01 0.02 0.01 0.01 0.01 0.02 0.02 0.02 0.03 0.04 0.05 0.05 0.04 0.03
0.01 0.01 0.00 0.00 0.00 0.00 0.00 0.00 0.01 0.01 0.02 0.03 0.03 0.03 0.02 0.01 0.01 0.01 0.01 0.00 0.00 0.00 0.00 0.00 0.00 0.00 0.00 0.01 0.01 0.01 0.01 0.01 0.01 0.02 0.02 0.02 0.02 0.03 0.05 0.05 0.05 0.04 0.03
0.00 0.00 0.00 0.00 0.00 0.00 0.00 0.00 0.01 0.01 0.01 0.02 0.02 0.02 0.01 0.01 0.01 0.01 0.00 0.00 0.00 0.00 0.00 0.00 0.00 0.00 0.00 0.00 0.01 0.01 0.01 0.01 0.01 0.01 0.02 0.03 0.03 0.03 0.04 0.05 0.05 0.05 0.04
0.01 0.01 0.01 0.01 0.01 0.01 0.01 0.01 0.01 0.01 0.02 0.01 0.01 0.01 0.00 0.00 0.00 0.00 0.00 0.00 0.00 0.00 0.00 0.00 0.00 0.00 0.00 0.00 0.01 0.01 0.01 0.01 0.02 0.02 0.02 0.02 0.04 0.04 0.04 0.05 0.04 0.04 0.04
0.01 0.02 0.02 0.02 0.02 0.01 0.01 0.01 0.01 0.01 0.01 0.01 0.01 0.00 0.00 0.00 0.00 0.00 0.00 0.00 0.00 0.00 0.00 0.00 0.00 0.00 0.00 0.00 0.01 0.01 0.01 0.02 0.02 0.03 0.02 0.02 0.03 0.04 0.04 0.04 0.04 0.04 0.05
0.02 0.01 0.01 0.01 0.01 0.01 0.01 0.01 0.01 0.01 0.01 0.01 0.01 0.01 0.01 0.00 0.00 0.00 0.00 0.00 0.00 0.00 0.00 0.00 0.00 0.00 0.00 0.00 0.01 0.01 0.01 0.01 0.02 0.02 0.03 0.03 0.03 0.04 0.04 0.04 0.03 0.04 0.05
0.01 0.01 0.01 0.01 0.01 0.01 0.01 0.01 0.00 0.00 0.01 0.01 0.01 0.01 0.01 0.00 0.00 0.00 0.00 0.00 0.00 0.00 0.00 0.00 0.00 0.00 0.00 0.01 0.01 0.01 0.01 0.01 0.01 0.02 0.03 0.03 0.04 0.04 0.04 0.04 0.04 0.03 0.04
0.01 0.00 0.01 0.01 0.01 0.01 0.01 0.01 0.01 0.01 0.01 0.01 0.01 0.01 0.01 0.00 0.00 0.00 0.00 0.00 0.01 0.01 0.02 0.02 0.01 0.01 0.01 0.02 0.02 0.02 0.02 0.02 0.03 0.04 0.04 0.04 0.04 0.04 0.04 0.04 0.03 0.03 0.05
0.01 0.01 0.01 0.01 0.01 0.01 0.01 0.01 0.01 0.01 0.01 0.01 0.01 0.01 0.00 0.00 0.00 0.00 0.00 0.00 0.01 0.01 0.01 0.02 0.02 0.02 0.02 0.02 0.02 0.02 0.02 0.02 0.03 0.04 0.05 0.04 0.03 0.04 0.04 0.03 0.03 0.03 0.04
MSLP
1003.16 1003.06 1002.98 1002.96 1003.02 1003.20 1003.49 1003.90 1004.42 1005.01 1005.63 1006.24 1006.82 1007.36 1007.86 1008.32 1008.78 1009.23 1009.70 1010.18 1010.65 1011.12 1011.57 1011.99 1012.38 1012.74 1013.07 1013.40 1013.71 1013.99 1014.24 1014.44 1014.55 1014.58 1014.52 1014.38 1014.17 1013.92 1013.67 1013.45 1013.26 1013.11 1013.01
1002.03 1001.99 1001.98 1002.02 1002.11 1002.31 1002.61 1003.03 1003.56 1004.17 1004.81 1005.46 1006.08 1006.65 1007.19 1007.69 1008.19 1008.69 1009.20 1009.73 1010.27 1010.81 1011.32 1011.80 1012.24 1012.63 1013.00 1013.33 1013.65 1013.94 1014.19 1014.40 1014.55 1014.61 1014.58 1014.46 1014.26 1014.01 1013.73 1013.46 1013.21 1013.00 1012.82
1000.73 1000.79 1000.86 1000.97 1001.12 1001.34 1001.67 1002.10 1002.64 1003.25 1003.92 1004.59 1005.24 1005.86 1006.44 1007.00 1007.54 1008.10 1008.67 1009.27 1009.89 1010.50 1011.09 1011.64 1012.13 1012.56 1012.95 1013.30 1013.61 1013.90 1014.17 1014.39 1014.56 1014.66 1014.67 1014.58 1014.41 1014.17 1013.87 1013.56 1013.25 1012.97 1012.73
999.34 999.50 999.67 999.87 1000.08 1000.35 1000.70 1001.15 1001.69 1002.32 1002.99 1003.69 1004.38 1005.04 1005.67 1006.28 1006.89 1007.51 1008.16 1008.84 1009.54 1010.23 1010.90 1011.51 1012.06 1012.54 1012.95 1013.30 1013.62 1013.91 1014.18 1014.42 1014.62 1014.76 1014.81 1014.77 1014.63 1014.40 1014.10 1013.75 1013.38 1013.03 1012.70
997.97 998.24 998.53 998.81 999.11 999.43 999.81 1000.26 1000.81 1001.43 1002.12 1002.83 1003.55 1004.25 1004.93 1005.60 1006.28 1006.98 1007.70 1008.47 1009.25 1010.03 1010.77 1011.46 1012.06 1012.58 1013.01 1013.37 1013.69 1013.98 1014.26 1014.51 1014.74 1014.91 1015.01 1015.01 1014.91 1014.69 1014.38 1014.00 1013.57 1013.14 1012.73
996.76 997.14 997.54 997.92 998.28 998.65 999.06 999.52 1000.07 1000.69 1001.38 1002.10 1002.84 1003.58 1004.32 1005.05 1005.79 1006.57 1007.37 1008.21 1009.08 1009.93 1010.75 1011.49 1012.14 1012.69 1013.14 1013.52 1013.83 1014.12 1014.39 1014.66 1014.90 1015.11 1015.24 1015.28 1015.21 1015.01 1014.68 1014.26 1013.78 1013.26 1012.76
995.83 996.31 996.81 997.27 997.70 998.10 998.53 999.00 999.54 1000.15 1000.84 1001.58 1002.34 1003.12 1003.90 1004.69 1005.50 1006.34 1007.21 1008.12 1009.05 1009.97 1010.84 1011.63 1012.32 1012.89 1013.36 1013.73 1014.04 1014.32 1014.59 1014.85 1015.10 1015.33 1015.49 1015.55 1015.50 1015.30 1014.97 1014.51 1013.97 1013.38 1012.78
995.28 995.84 996.41 996.93 997.39 997.82 998.26 998.73 999.26 999.87 1000.56 1001.31 1002.09 1002.91 1003.73 1004.58 1005.44 1006.33 1007.26 1008.23 1009.20 1010.16 1011.07 1011.89 1012.60 1013.18 1013.65 1014.01 1014.31 1014.57 1014.82 1015.07 1015.32 1015.54 1015.72 1015.80 1015.75 1015.56 1015.22 1014.73 1014.14 1013.48 1012.80
995.11 995.72 996.33 996.87 997.36 997.80 998.23 998.70 999.23 999.84 1000.54 1001.30 1002.12 1002.97 1003.84 1004.72 1005.63 1006.57 1007.53 1008.53 1009.53 1010.51 1011.43 1012.26 1012.97 1013.55 1014.00 1014.35 1014.62 1014.85 1015.07 1015.30 1015.53 1015.75 1015.91 1016.00 1015.96 1015.77 1015.42 1014.91 1014.29 1013.57 1012.82
995.27 995.89 996.50 997.05 997.53 997.97 998.40 998.87 999.41 1000.04 1000.76 1001.55 1002.40 1003.29 1004.20 1005.12 1006.06 1007.02 1008.00 1009.01 1010.01 1010.98 1011.90 1012.72 1013.41 1013.98 1014.40 1014.72 1014.96 1015.16 1015.34 1015.53 1015.73 1015.92 1016.08 1016.16 1016.12 1015.94 1015.59 1015.08 1014.43 1013.69 1012.89
995.64 996.24 996.82 997.34 997.81 998.25 998.69 999.18 999.75 1000.42 1001.18 1002.01 1002.91 1003.83 1004.78 1005.73 1006.68 1007.65 1008.63 1009.62 1010.61 1011.56 1012.45 1013.24 1013.91 1014.44 1014.84 1015.12 1015.32 1015.47 1015.61 1015.75 1015.91 1016.08 1016.21 1016.28 1016.25 1016.08 1015.74 1015.25 1014.61 1013.85 1013.04
996.08 996.63 997.17 997.66 998.12 998.56 999.04 999.57 1000.19 1000.92 1001.74 1002.63 1003.57 1004.54 1005.51 1006.47 1007.44 1008.40 1009.36 1010.32 1011.26 1012.18 1013.03 1013.79 1014.42 1014.92 1015.29 1015.54 1015.69 1015.80 1015.89 1015.99 1016.10 1016.23 1016.34 1016.39 1016.36 1016.20 1015.88 1015.41 1014.79 1014.06 1013.25
996.50 996.98 997.47 997.94 998.40 998.87 999.40 1000.00 1000.70 1001.50 1002.39 1003.35 1004.34 1005.35 1006.34 1007.31 1008.26 1009.20 1010.12 1011.04 1011.94 1012.81 1013.62 1014.33 1014.93 1015.40 1015.73 1015.95 1016.07 1016.14 1016.18 1016.23 1016.30 1016.38 1016.45 1016.48 1016.44 1016.29 1016.00 1015.56 1014.97 1014.27 1013.48
996.84 997.27 997.72 998.18 998.66 999.19 999.79 1000.48 1001.27 1002.17 1003.14 1004.16 1005.20 1006.23 1007.24 1008.20 1009.12 1010.02 1010.90 1011.76 1012.61 1013.42 1014.18 1014.85 1015.42 1015.86 1016.17 1016.36 1016.46 1016.49 1016.49 1016.48 1016.50 1016.52 1016.55 1016.55 1016.50 1016.34 1016.06 1015.64 1015.09 1014.42 1013.66
997.15 997.54 997.97 998.44 998.97 999.58 1000.26 1001.06 1001.95 1002.94 1003.99 1005.06 1006.14 1007.18 1008.17 1009.11 1009.99 1010.83 1011.65 1012.46 1013.24 1014.00 1014.71 1015.35 1015.88 1016.30 1016.59 1016.76 1016.83 1016.83 1016.79 1016.74 1016.69 1016.66 1016.64 1016.59 1016.50 1016.32 1016.03 1015.62 1015.09 1014.44 1013.70
997.53 997.90 998.33 998.84 999.44 1000.12 1000.91 1001.80 1002.79 1003.85 1004.95 1006.06 1007.15 1008.18 1009.15 1010.04 1010.87 1011.65 1012.40 1013.14 1013.86 1014.56 1015.22 1015.82 1016.32 1016.71 1016.98 1017.13 1017.18 1017.15 1017.07 1016.97 1016.87 1016.78 1016.68 1016.57 1016.42 1016.20 1015.89 1015.46 1014.92 1014.27 1013.54
998.11 998.47 998.93 999.49 1000.15 1000.92 1001.79 1002.76 1003.82 1004.93 1006.06 1007.18 1008.25 1009.25 1010.17 1011.01 1011.77 1012.48 1013.17 1013.83 1014.49 1015.12 1015.73 1016.27 1016.74 1017.10 1017.35 1017.48 1017.50 1017.45 1017.33 1017.18 1017.02 1016.85 1016.68 1016.50 1016.27 1015.99 1015.62 1015.14 1014.57 1013.91 1013.17
998.99 999.37 999.87 1000.47 1001.19 1002.02 1002.95 1003.98 1005.07 1006.19 1007.32 1008.42 1009.45 1010.40 1011.25 1012.02 1012.71 1013.35 1013.96 1014.55 1015.14 1015.70 1016.25 1016.74 1017.15 1017.47 1017.68 1017.78 1017.78 1017.69 1017.53 1017.34 1017.12 1016.88 1016.64 1016.37 1016.06 1015.70 1015.26 1014.72 1014.09 1013.38 1012.61
1000.25 1000.65 1001.17 1001.81 1002.56 1003.42 1004.38 1005.41 1006.50 1007.61 1008.70 1009.74 1010.71 1011.60 1012.38 1013.08 1013.70 1014.27 1014.80 1015.32 1015.83 1016.32 1016.79 1017.21 1017.56 1017.82 1017.99 1018.04 1018.00 1017.87 1017.68 1017.44 1017.17 1016.88 1016.57 1016.22 1015.84 1015.39 1014.87 1014.26 1013.57 1012.80 1011.98
1001.86 1002.26 1002.79 1003.44 1004.20 1005.05 1006.00 1007.01 1008.06 1009.11 1010.14 1011.11 1012.01 1012.82 1013.54 1014.16 1014.72 1015.22 1015.69 1016.13 1016.56 1016.97 1017.36 1017.69 1017.97 1018.16 1018.26 1018.26 1018.17 1018.01 1017.78 1017.50 1017.19 1016.86 1016.49 1016.09 1015.64 1015.13 1014.53 1013.86 1013.10 1012.28 1011.40
1003.70 1004.11 1004.62 1005.25 1005.98 1006.80 1007.70 1008.65 1009.63 1010.61 1011.56 1012.46 1013.29 1014.03 1014.68 1015.25 1015.75 1016.19 1016.59 1016.97 1017.32 1017.65 1017.94 1018.18 1018.36 1018.47 1018.50 1018.44 1018.30 1018.10 1017.84 1017.54 1017.21 1016.85 1016.45 1016.01 1015.52 1014.96 1014.32 1013.60 1012.80 1011.92 1011.00
1005.65 1006.04 1006.52 1007.11 1007.78 1008.54 1009.37 1010.24 1011.14 1012.03 1012.90 1013.73 1014.48 1015.16 1015.76 1016.28 1016.74 1017.13 1017.48 1017.79 1018.07 1018.31 1018.51 1018.66 1018.74 1018.76 1018.71 1018.59 1018.41 1018.17 1017.89 1017.58 1017.23 1016.86 1016.46 1016.02 1015.51 1014.94 1014.28 1013.53 1012.70 1011.81 1010.86
1007.56 1007.91 1008.35 1008.88 1009.48 1010.16 1010.90 1011.69 1012.50 1013.31 1014.11 1014.86 1015.56 1016.19 1016.75 1017.23 1017.65 1018.01 1018.32 1018.57 1018.78 1018.94 1019.06 1019.11 1019.10 1019.04 1018.91 1018.73 1018.50 1018.24 1017.94 1017.63 1017.29 1016.93 1016.54 1016.11 1015.62 1015.05 1014.40 1013.66 1012.84 1011.94 1010.99
1009.30 1009.62 1010.00 1010.46 1011.00 1011.60 1012.25 1012.95 1013.68 1014.42 1015.14 1015.84 1016.49 1017.08 1017.61 1018.07 1018.46 1018.79 1019.06 1019.27 1019.42 1019.52 1019.55 1019.53 1019.44 1019.30 1019.11 1018.88 1018.62 1018.33 1018.03 1017.72 1017.40 1017.06 1016.69 1016.28 1015.81 1015.27 1014.65 1013.94 1013.15 1012.29 1011.36
1010.82 1011.11 1011.45 1011.84 1012.31 1012.83 1013.41 1014.04 1014.69 1015.36 1016.03 1016.67 1017.28 1017.84 1018.34 1018.78 1019.15 1019.46 1019.69 1019.87 1019.97 1020.01 1019.99 1019.90 1019.76 1019.56 1019.32 1019.06 1018.77 1018.47 1018.16 1017.86 1017.54 1017.22 1016.88 1016.49 1016.06 1015.55 1014.97 1014.31 1013.56 1012.75 1011.87
1012.13 1012.39 1012.69 1013.04 1013.45 1013.91 1014.42 1014.98 1015.58 1016.19 1016.80 1017.40 1017.96 1018.49 1018.96 1019.38 1019.72 1020.00 1020.22 1020.36 1020.43 1020.43 1020.36 1020.23 1020.05 1019.82 1019.55 1019.26 1018.96 1018.65 1018.34 1018.03 1017.73 1017.42 1017.08 1016.72 1016.31 1015.84 1015.29 1014.67 1013.98 1013.23 1012.41
Thickness
5675 5675 5674 5675 5675 5674 5674 5673 5672 5671 5668 5666 5664 5661 5659 5657 5655 5653 5652 5650 5649 5647 5645 5644 5642 5640 5639 5637 5636 5635 5633 5631 5629 5629 5630 5633 5633 5633 5632 5631 5630 5629 5627
5667 5667 5667 5668 5668 5669 5669 5667 5666 5664 5662 5660 5658 5656 5652 5649 5647 5644 5642 5641 5640 5638 5636 5634 5633 5631 5629 5627 5626 5623 5621 5619 5617 5616 5617 5620 5624 5623 5621 5620 5619 5619 5618
5661 5662 5661 5662 5662 5662 5662 5661 5659 5657 5654 5652 5649 5646 5643 5640 5638 5636 5634 5632 5630 5628 5626 5625 5623 5621 5619 5618 5616 5613 5611 5609 5606 5604 5602 5605 5610 5611 5612 5610 5608 5607 5606
5655 5655 5655 5655 5655 5655 5653 5652 5651 5649 5646 5644 5642 5640 5638 5635 5632 5628 5624 5622 5620 5618 5616 5615 5613 5611 5609 5608 5605 5603 5600 5598 5596 5593 5591 5591 5591 5591 5597 5600 5598 5596 5595
5648 5648 5648 5648 5647 5645 5644 5643 5642 5640 5638 5636 5634 5632 5630 5626 5622 5618 5615 5612 5610 5608 5606 5605 5603 5601 5599 5597 5595 5592 5590 5587 5585 5583 5581 5579 5577 5577 5578 5584 5585 5584 5583
5640 5640 5640 5639 5637 5636 5634 5633 5633 5631 5629 5627 5625 5623 5620 5616 5612 5609 5606 5603 5600 5598 5596 5594 5593 5591 5589 5586 5584 5581 5579 5576 5574 5572 5570 5568 5566 5565 5564 5566 5569 5570 5571
5633 5633 5633 5631 5629 5627 5625 5624 5623 5621 5619 5617 5615 5613 5610 5607 5604 5600 5597 5594 5591 5588 5586 5584 5582 5580 5578 5575 5573 5570 5567 5565 5563 5561 5558 5555 5553 5551 5549 5549 5552 5555 5557
5626 5626 5625 5624 5622 5619 5617 5616 5614 5611 5609 5607 5605 5603 5599 5596 5594 5590 5588 5585 5582 5579 5576 5573 5571 5569 5567 5564 5561 5559 5556 5554 5551 5549 5545 5543 5540 5537 5535 5534 5534 5538 5544
5618 5617 5616 5615 5613 5611 5608 5606 5604 5601 5599 5597 5594 5591 5589 5585 5582 5579 5577 5574 5571 5568 5565 5562 5560 5558 5555 5552 5549 5547 5545 5542 5539 5536 5533 5531 5528 5525 5522 5520 5518 5518 5524
5609 5608 5607 5605 5603 5600 5597 5595 5594 5591 5588 5586 5583 5580 5577 5574 5571 5568 5566 5563 5560 5556 5554 5551 5548 5546 5544 5541 5538 5535 5533 5530 5527 5524 5521 5519 5517 5514 5510 5508 5506 5505 5505
5600 5599 5597 5595 5592 5589 5586 5584 5582 5580 5577 5574 5571 5568 5565 5562 5559 5557 5555 5551 5548 5545 5542 5539 5537 5535 5532 5529 5527 5524 5521 5518 5516 5513 5510 5508 5504 5502 5500 5497 5495 5494 5492
5589 5588 5586 5584 5581 5578 5576 5573 5571 5568 5565 5562 5559 5556 5553 5550 5548 5545 5542 5539 5536 5533 5530 5527 5525 5523 5520 5518 5515 5512 5509 5507 5505 5502 5499 5496 5493 5490 5489 5486 5485 5483 5481
5577 5576 5575 5572 5570 5567 5565 5562 5559 5556 5553 5550 5547 5544 5541 5538 5536 5532 5529 5526 5523 5521 5518 5515 5513 5510 5508 5506 5503 5501 5498 5495 5493 5490 5487 5485 5482 5480 5477 5475 5473 5471 5469
5565 5565 5563 5562 5559 5556 5553 5550 5547 5544 5540 5538 5535 5533 5530 5527 5524 5520 5517 5514 5511 5509 5506 5503 5501 5498 5496 5494 5492 5489 5487 5485 5482 5478 5476 5473 5470 5468 5465 5463 5462 5460 5458
5553 5552 5551 5550 5547 5544 5541 5538 5535 5531 5528 5526 5523 5520 5517 5514 5511 5508 5505 5502 5499 5496 5494 5492 5489 5487 5485 5482 5480 5478 5476 5474 5471 5468 5465 5463 5459 5456 5453 5451 5450 5448 5447
5542 5540 5539 5538 5535 5532 5529 5526 5522 5519 5516 5514 5511 5507 5505 5502 5498 5495 5493 5490 5487 5485 5482 5480 5478 5476 5474 5471 5467 5465 5464 5462 5460 5458 5456 5454 5450 5447 5444 5441 5438 5435 5435
5530 5529 5528 5526 5523 5520 5517 5514 5510 5507 5504 5501 5498 5495 5492 5489 5486 5483 5481 5478 5476 5473 5471 5469 5467 5465 5463 5459 5457 5454 5453 5452 5450 5448 5447 5445 5442 5438 5436 5433 5430 5427 5424
5519 5517 5515 5513 5510 5507 5504 5501 5498 5494 5491 5488 5486 5483 5480 5477 5474 5472 5470 5467 5465 5462 5460 5458 5456 5454 5451 5448 5447 5444 5443 5442 5441 5439 5437 5435 5433 5429 5426 5424 5422 5420 5417
5506 5505 5502 5500 5497 5494 5491 5489 5486 5482 5479 5476 5474 5470 5467 5465 5462 5460 5458 5456 5453 5451 5449 5446 5444 5443 5441 5438 5436 5434 5434 5433 5431 5429 5427 5424 5422 5420 5416 5413 5412 5412 5410
5492 5490 5488 5487 5484 5481 5479 5476 5474 5471 5467 5464 5461 5457 5455 5453 5451 5449 5446 5444 5441 5440 5437 5435 5433 5432 5431 5428 5426 5423 5423 5423 5422 5420 5418 5414 5412 5409 5406 5404 5403 5402 5401
5477 5477 5476 5474 5472 5469 5467 5465 5462 5459 5455 5451 5448 5446 5443 5441 5439 5437 5434 5432 5430 5428 5426 5425 5424 5422 5420 5418 5416 5414 5412 5411 5411 5410 5408 5406 5402 5400 5397 5394 5393 5392 5390
5463 5463 5462 5461 5458 5456 5455 5453 5450 5446 5442 5439 5437 5435 5432 5430 5427 5425 5423 5421 5418 5417 5416 5415 5415 5413 5410 5408 5407 5404 5401 5400 5399 5399 5398 5395 5393 5390 5388 5386 5384 5382 5380
5450 5449 5449 5447 5445 5443 5442 5440 5436 5433 5430 5428 5426 5424 5421 5418 5416 5414 5412 5410 5408 5407 5406 5405 5404 5403 5401 5399 5396 5394 5392 5390 5389 5388 5386 5384 5383 5381 5380 5378 5375 5373 5371
5437 5436 5436 5434 5432 5430 5428 5426 5423 5420 5419 5417 5415 5412 5410 5408 5405 5403 5402 5400 5399 5397 5396 5394 5394 5392 5391 5389 5387 5385 5384 5382 5380 5379 5377 5375 5373 5371 5369 5369 5367 5364 5362
5424 5424 5423 5421 5419 5417 5415 5412 5411 5409 5408 5406 5404 5401 5399 5397 5395 5393 5391 5389 5388 5386 5385 5384 5382 5381 5381 5379 5376 5375 5374 5373 5371 5370 5369 5368 5366 5364 5363 5361 5358 5356 5355
5411 5410 5409 5408 5406 5404 5402 5400 5398 5397 5396 5395 5393 5391 5388 5386 5385 5384 5382 5379 5377 5376 5374 5373 5371 5371 5369 5368 5367 5366 5365 5364 5362 5361 5360 5359 5357 5355 5353 5351 5350 5348 5346